www.pogodaiklimat.ru

Погода и климат >> Архив погоды >> Россия >> Хабаровский край >> Советская Гавань


ПОГОДА в Советской Гавани

  • Прогноз погоды в Советской Гавани
  • Монитор погоды в Советской Гавани
  • Климат города

АРХИВ ПОГОДЫ в Советской Гавани

Время (UTC), дата Ветер
(напр.,м/с)
 
Видим.   Явления Облачность Т
(С)
Тd
(С)
f
(%)
Тe
(С)
Тes
(С)
Комфортность P
(гПа)
Po
(гПа)
Тmin
(С)
Tmax
(С)
R
(мм)
R24
(мм)
S
(см)
03 9.07 Ю 2 50 км 10/1 600 м
[Sc Ac trans Cc]
+17.9 +11.0 64 +18 +26 1019.5 1017.0
06 9.07 З 2 50 км 10/3 600 м
[Sc Cc]
+16.8 +10.4 66 +17 +23 1018.7 1016.2
09 9.07 ЮЗ 2 20 км 10/6 600 м
[Sc Ac As]
+13.2 +10.4 83 +12 +13 1018.3 1015.8 +17.9
12 9.07 ЮЗ 2 17 км 10/6 600 м
[Sc Ac As]
+11.8 +10.3 91 +11 +11 1018.6 1016.1
15 9.07 штиль 0 16 км 10/8 600 м
[Sc Ac As]
+10.9 +10.3 96 +10 +10 1018.3 1015.7
18 9.07 штиль 0 13 км 10/8 300 м
[St Ac As]
+10.9 +10.5 97 +10 +10 1018.0 1015.4
21 9.07 штиль 0 4000 м дымка 10/10 300 м
[St]
+11.6 +11.0 96 +11 +11 1018.5 1015.9 +10.8
00 10.07 С 2 20 км 10/3 300 м
[St Ac trans Cc]
+15.4 +12.3 82 +15 +20 1017.8 1015.3
03 10.07 С 2 20 км 4/1 600 м
[Sc Ac trans Ci fib]
+19.7 +13.4 67 +22 +35 комфорт 1016.6 1014.1
06 10.07 З 2 20 км 8/1 600 м
[Sc Ci fib]
+20.5 +13.6 65 +24 +31 комфорт 1015.4 1012.9
09 10.07 З 2 50 км 10/1 600 м
[Sc Ci fib]
+17.1 +12.4 74 +17 +18 1014.9 1012.4 +21.6
12 10.07 СВ 2 50 км 10/1 600 м
[Sc Ac trans Ci fib]
+11.6 +10.6 94 +10 +10 1015.6 1013.1
15 10.07 штиль 0 15 км 10/10 600 м
[Sc]
+11.0 +10.6 97 +10 +10 1015.0 1012.4
18 10.07 штиль 0 1000 м дымка 10/10 100 м
[St]
+11.0 +10.8 99 +10 +10 1013.8 1011.3
21 10.07 С 2 2000 м дымка {туман} 10/10 100 м
[St]
+11.1 +10.9 99 +10 +10 1013.1 1010.6 +10.8
00 11.07 СВ 2 50 км {туман} 8/4 600 м
[Cu Sc Ac trans]
+15.2 +12.5 84 +15 +19 1012.0 1009.5
03 11.07 С 2 50 км 4/4 600 м
[Cu hum]
+19.4 +13.8 70 +21 +32 комфорт 1010.5 1008.0
06 11.07 СВ 2 50 км {ливн. осадки} 8/8 600 м
[Cb cap]
+18.7 +13.8 73 +20 +22 1009.6 1007.1
09 11.07 СВ 2 50 км в посл. час ливневой дождь 9/8 600 м
[Cb cap Ac cuf]
+14.3 +12.5 89 +14 +14 1009.7 1007.2 +20.2 0.4
12 11.07 СВ 2 18 км {ливн. осадки} 10/8 600 м
[Cb cap Ac trans Ci fib]
+12.8 +12.0 95 +12 +12 1010.3 1007.8
15 11.07 штиль 0 8000 м дымка 10/10 300 м
[St]
+11.4 +11.1 98 +11 +11 1010.2 1007.7
18 11.07 штиль 0 3500 м дымка 10/10 300 м
[St]
+11.0 +10.8 99 +10 +10 1009.8 1007.3
21 11.07 штиль 0 500 м туман 10/10 300 м
[St]
+11.5 +11.3 99 +11 +11 1009.7 1007.1 +11.0 0.0
00 12.07 СВ 2 2000 м дымка {туман} 8/6 300 м
[St Ac trans Ci fib]
+15.4 +13.0 86 +15 +19 1009.0 1006.5
03 12.07 В 2 20 км 3/3 600 м
[Sc diur, vesp Ci fib]
+18.3 +14.5 79 +19 +31 опасность
простуды
1007.8 1005.3
06 12.07 С 2 50 км 6/3 600 м
[Sc diur, vesp Ac trans Cc]
+20.4 +15.2 72 +24 +29 комфорт 1007.0 1004.5
09 12.07 штиль 0 50 км 6/3 600 м
[Sc Ac trans Ci fib]
+19.0 +15.0 78 +20 +21 1007.3 1004.9 +20.8
12 12.07 штиль 0 23 км 10/3 200 м
[St Ac trans Ci fib]
+13.7 +13.3 97 +13 +13 1008.2 1005.7
15 12.07 Ю 2 19 км 10/10 200 м
[St]
+14.3 +13.4 94 +14 +14 1008.0 1005.5
18 12.07 штиль 0 11 км слабая морось 10/10 300 м
[St]
+13.9 +13.6 98 +13 +13 1007.5 1005.0
21 12.07 штиль 0 4000 м в посл. час морось 10/10 300 м
[St]
+14.6 +14.2 97 +14 +14 1007.7 1005.2 +13.4 0.0
00 13.07 20 км {морось} 10/9 600 м
[Cb cap Ci fib]
+17.5 +14.5 83 1007.5 1005.0
03 13.07 СЗ 2 20 км слабый ливневой дождь 10/8 600 м
[Cb cap As trans Ci fib]
+18.3 +14.7 80 +19 +21 1007.4 1004.9
06 13.07 З 2 20 км ливневой дождь 10/10 300 м
[Cb cap]
+16.2 +15.2 94 +16 +16 1007.3 1004.8
09 13.07 Ю 2 10 км слабый ливневой дождь 10/8 300 м
[Cb cap Ac und]
+15.8 +14.2 90 +16 +16 1007.3 1004.8 +18.7 0.8
12 13.07 ЮВ 2 10 км {ливн. осадки} 10/8 300 м
[Cb cap Ac As]
+14.4 +13.9 97 +14 +14 1007.6 1005.1
15 13.07 штиль 0 6000 м слабая морось 10/10 300 м
[St]
+14.2 +13.6 96 +14 +14 1007.9 1005.4
18 13.07 Ю 2 8000 м 10/10 600 м
[Cb cap]
+14.0 +13.5 97 +13 +13 1007.6 1005.1
21 13.07 Ю 2 10 км {ливн. осадки} 10/10 300 м
[Cb cap]
+14.2 +13.7 97 +14 +14 1007.7 1005.2 +13.9 2
00 14.07 штиль 0 10 км {ливн. осадки} 10/10 300 м
[St]
+15.6 +14.2 91 +15 +15 1008.3 1005.8
03 14.07 Ю 2 10 км 10/10 300 м
[St]
+16.0 +14.5 91 +16 +16 1008.4 1005.9
06 14.07 З 2 10 км 10/10 200 м
[St]
+16.0 +14.2 89 +16 +16 1008.5 1006.1
09 14.07 штиль 0 10 км 10/10 200 м
[St]
+14.2 +13.4 95 +14 +14 1008.7 1006.2 +17.1
12 14.07 ЮЗ 2 10 км 10/10 300 м
[St]
+14.1 +13.1 94 +14 +14 1009.1 1006.6
15 14.07 штиль 0 11 км 10/10 300 м
[St]
+13.7 +13.1 96 +13 +13 1008.6 1006.1
18 14.07 штиль 0 10 км 10/10 300 м
[St]
+13.0 +12.4 96 +12 +12 1008.3 1005.4
21 14.07 Ю 2 4000 м слабая морось 10/10 200 м
[St]
+13.2 +12.8 97 +12 +12 1007.4 1004.9 +12.4 0.0
00 15.07 штиль 0 4000 м слабый ливневой дождь {морось} 10/10 200 м
[Cb cap]
+13.0 +12.6 97 +12 +12 1007.8 1005.3
03 15.07 штиль 0 4000 м слабый ливневой дождь 10/10 300 м
[Cb cap]
+13.8 +13.5 98 +13 +13 1006.8 1004.3
06 15.07 СВ 2 4000 м ливневой дождь 10/10 300 м
[Cb cap]
+14.7 +14.4 98 +14 +14 1006.2 1003.7
09 15.07 С 2 20 км слабый ливневой дождь 10/10 300 м
[Cb cap]
+14.7 +14.3 97 +14 +14 1006.4 1003.9 +15.0 10
12 15.07 СВ 2 10 км слабый ливневой дождь 10/10 300 м
[Cb cap]
+15.1 +14.6 97 +15 +15 1007.7 1005.2
15 15.07 штиль 0 3300 м 10/10 200 м
[]
+13.6 +13.3 98 +13 +13 1007.6 1005.1
18 15.07 СВ 2 3800 м дымка {ливн. осадки, морось} 10/8 300 м
[Cb cap Ac lent]
+12.7 +12.4 98 +12 +12 1008.1 1005.6
21 15.07 штиль 0 50 км 10/6 600 м
[Sc Ac lent Ci fib]
+13.9 +13.8 99 +13 +14 1008.6 1006.1 +12.7 3

 

Местоположение метеостанции Советская Гавань (Хабаровский край, Россия): широта 49.00 долгота 140.30 высота над уровнем моря 24 м.

В архиве по умолчанию представлена погода в Советской Гавани за последнюю неделю. Архивные данные за месяц целиком и за предыдущие месяцы, начиная с января 2011 года, Вы можете получить, выбрав интересующий диапазон дат из раскрывающегося списка и нажав кнопку "Ввод!".


*Определитесь, кто Вы:
робот инопланетянин человек

Внимание! Время в таблицах - всемирное. Для получения местного времени необходимо прибавить поправку, которая в Советской Гавани равна 10 ч.

Смотрите также архив погоды в соседних городах и на ближайших метеорологических станциях:

Погода в Тумнине (Хабаровский край, Россия) (75 км)
Погода в Мопау (Хабаровский край, Россия) (103 км)
Погода в Углегорске (Сахалинская область, Россия) (124 км)
Погода в Солекуль (Хабаровский край, Россия) (169 км)
Погода в Пильво (Сахалинская область, Россия) (175 км)
Погода в Ильинском (Сахалинская область, Россия) (180 км)
Погода в Макарове (Сахалинская область, Россия) (181 км)
Погода в Сегжеме (Хабаровский край, Россия) (203 км)
Погода в Поронайске (Сахалинская область, Россия) (205 км)
Погода в Оноре (Сахалинская область, Россия) (209 км)

Пояснения к столбцам:

Ветер - указаны скорость ветра в м/с - средняя за 10 мин, порывы в срок и между сроками (в фигурных скобках) и направление, откуда дует ветер: С - северный, СВ - северо-восточный, В - восточный, ЮВ - юго-восточный, Ю - южный, ЮЗ - юго-западный, З - западный, СЗ - северо-западный.
Видимость - горизонтальная дальность видимости в метрах или километрах. При видимости от 1 до 10 км при отсутствии осадков обычно наблюдается дымка, при ухудшении видимости до 1 км и менее - туман. В сухую погоду видимость может ухудшаться дымом, пылью или мглою.
Явления - указаны атмосферные явления, наблюдавшиеся в срок или в последний час перед сроком; фигурными скобками обозначены явления, наблюдавшиеся между сроками (за 1-3 часа до срока); квадратными скобками обозначены град или гололедные отложения с указанием их диаметра в мм.
Облачность - указаны через наклонную черту общая и нижняя облачность в баллах и высота нижней границы облаков в метрах; квадратными скобками обозначены формы облаков: Ci - перистые, Cs - перисто-слоистые, Cc - перисто-кучевые, Ac - высококучевые, As - высокослоистые, Sc - слоисто-кучевые, Ns - слоисто-дождевые, Cu - кучевые, Cb - кучево-дождевые. Подробнее классификацию облаков см. в Атласе облаков (PDF).
T - Температура воздуха - температура, измеренная на высоте 2 м над землей.
Td - Температура точки росы - температура, при понижении до которой содержащийся в воздухе водяной пар достигнет насыщения.
f - Относительная влажность воздуха - влажноcть воздуха, измеренная на высоте 2 м над землей.
Te - Эффективная температура - температура, которую ощущает одетый по сезону человек в тени. Характеристика душности погоды. При расчете учитывается влияние влажности воздуха и скорости ветра на теплоощущения человека.
Tes - Эффективная температура на солнце - температура, которую ощущает человек, с поправкой на солнечный нагрев. Характеристика знойности погоды. Зависит от высоты солнца над горизонтом, облачности и скорости ветра. Ночью, в пасмурную погоду, а также при ветре 12 м/с и более поправка равна нулю.
P - Атмосферное давление - приведенное к уровню моря атмосферное давление.
Po - Атмосферное давление - измеренное на уровне метеостанции атмосферное давление.
Tmin - Минимальная температура - минимум температуры воздуха на высоте 2 м над землей.
Tmax - Максимальная температура - максимум температуры воздуха на высоте 2 м над землей.
R - Количество осадков - Количество выпавших осадков за период времени, мм. При наведении курсора мыши на число - период времени, за который выпало указанное количество осадков.
R24 - Количество осадков - Количество выпавших осадков за 24 часа, мм.
S - Снежный покров - Высота снежного покрова, см. При наведении курсора мыши на число - состояние снежного покрова и степень покрытия местности в баллах.